Weather History for Juliana Airport, St. Martin

Change the Weather History Date:

Sunday, October 20, 2013

  Actual Average Record
Temperature  
Mean Temperature 82 °F -  
Max Temperature 88 °F 85 °F 89 °F (1998)
Min Temperature 76 °F 75 °F 73 °F (2006)
Cooling Degree Days 17    
Growing Degree Days 32 (Base 50)    
Moisture  
Dew Point 76 °F    
Average Humidity 78    
Maximum Humidity 89    
Minimum Humidity 63    
Precipitation  
Precipitation 0.04 in 0.16 in - ()
Sea Level Pressure  
Sea Level Pressure 29.93 in    
Wind  
Wind Speed 12 mph ()    
Max Wind Speed 107 mph    
Max Gust Speed 29 mph    
Visibility 7.5 miles    
Events Rain    
Averages and records for this station are not official NWS values.
T = Trace of Precipitation, MM = Missing Value Source: Averaged Metar Reports

Daily Weather History Graph

Daily Weather History Graph

Search for Another Location

Airport:

Trip Planner

Search our weather history database for the weather conditions in past years. The results will help you decide how hot, cold, wet, or windy it might be!

Date:

Astronomy

Oct. 20, 2013 Rise Set
Actual Time 6:07 AM AST 5:46 PM AST
Civil Twilight 5:45 AM AST 6:08 PM AST
Nautical Twilight 5:19 AM AST 6:34 PM AST
Astronomical Twilight 4:54 AM AST 6:59 PM AST
Moon 7:07 PM AST 7:27 AM AST
Length of Visible Light 12h 23m
Length of Day
11h 39m
Full, 97% of the Moon is Illuminated
Oct 20
Full
Oct 26
Last Quarter
Nov 3
New
Nov 10
First Quarter
Nov 17
Full

Hourly Weather History & Observations

Time (AST) Temp. Heat Index Dew Point Humidity Pressure Visibility Wind Dir Wind Speed Gust Speed Precip Events Conditions
12:00 AM 77.0 °F - 71.6 °F 83% 29.95 in 2.5 mi ESE 11.5 mph 25.3 mph N/A Rain Heavy Rain Showers
1:00 AM 80.6 °F 87.1 °F 77.0 °F 89% 29.92 in 6.2 mi Variable 3.5 mph - N/A   Partly Cloudy
2:00 AM 81 °F - 76 °F 81% 29.92 in 19 mi 107.0 mph - -   Partly Cloudy
2:00 AM 80.6 °F 87.1 °F 77.0 °F 89% 29.92 in 6.2 mi ENE 3.5 mph - N/A   Partly Cloudy
3:00 AM 80.6 °F 87.1 °F 77.0 °F 89% 29.89 in 6.2 mi East 3.5 mph - N/A   Partly Cloudy
4:00 AM 82.4 °F 89.5 °F 75.2 °F 79% 29.89 in 6.2 mi East 4.6 mph - N/A   Partly Cloudy
5:00 AM 81 °F - 76 °F 79% 29.90 in 19 mi East 4.6 mph - -   Partly Cloudy
5:00 AM 80.6 °F 86.2 °F 75.2 °F 84% 29.89 in 6.2 mi East 6.9 mph - N/A   Partly Cloudy
6:00 AM 82.4 °F 89.5 °F 75.2 °F 79% 29.92 in 6.2 mi East 6.9 mph - N/A   Partly Cloudy
7:00 AM 82.4 °F 90.9 °F 77.0 °F 84% 29.92 in 6.2 mi East 6.9 mph - N/A   Partly Cloudy
8:00 AM 84 °F - 76 °F 71% 29.96 in 44 mi East 6.9 mph - -   Partly Cloudy
8:00 AM 84.2 °F 94.1 °F 77.0 °F 79% 29.95 in 6.2 mi East 6.9 mph - N/A   Partly Cloudy
9:00 AM 86.0 °F 95.1 °F 75.2 °F 70% 29.98 in 6.2 mi ESE 9.2 mph - N/A   Scattered Clouds
10:00 AM 87.8 °F 97.6 °F 75.2 °F 66% 29.98 in 6.2 mi East 10.4 mph - N/A   Partly Cloudy
11:00 AM 86 °F - 75 °F 64% 29.98 in 19 mi East 12.7 mph - -   Partly Cloudy
11:00 AM 86.0 °F 95.1 °F 75.2 °F 70% 29.98 in 6.2 mi East 12.7 mph - N/A   Scattered Clouds
12:00 PM 86.0 °F 95.1 °F 75.2 °F 70% 29.95 in 6.2 mi ESE 8.1 mph - N/A   Partly Cloudy
1:00 PM 87.8 °F 97.6 °F 75.2 °F 66% 29.92 in 6.2 mi ESE 10.4 mph - N/A   Partly Cloudy
2:00 PM 86 °F - 75 °F 63% 29.92 in 28 mi SE 13.8 mph - -   Partly Cloudy
2:00 PM 86.0 °F 95.1 °F 75.2 °F 70% 29.92 in 6.2 mi ESE 12.7 mph - N/A   Scattered Clouds
3:00 PM 82.4 °F 89.5 °F 75.2 °F 79% 29.89 in 5.6 mi SE 17.3 mph 28.8 mph N/A   Mostly Cloudy
4:00 PM 84.2 °F 92.3 °F 75.2 °F 74% 29.89 in 6.2 mi ESE 10.4 mph - N/A   Partly Cloudy
5:00 PM 83 °F - 76 °F 73% 29.92 in 28 mi SE 12.7 mph - -   Partly Cloudy
5:00 PM 84.2 °F 94.1 °F 77.0 °F 79% 29.92 in 6.2 mi ESE 10.4 mph - N/A   Partly Cloudy
6:00 PM 82.4 °F 89.5 °F 75.2 °F 79% 29.92 in 6.2 mi SE 8.1 mph - N/A   Partly Cloudy
7:00 PM 82.4 °F 90.9 °F 77.0 °F 84% 29.92 in 6.2 mi SE 8.1 mph - N/A   Partly Cloudy
8:00 PM 82 °F - 77 °F 80% 29.95 in 25 mi ESE 6.9 mph - -   Partly Cloudy
8:00 PM 82.4 °F 90.9 °F 77.0 °F 84% 29.95 in 6.2 mi ESE 6.9 mph - N/A   Partly Cloudy
9:00 PM 82.4 °F 90.9 °F 77.0 °F 84% 29.95 in 6.2 mi ESE 5.8 mph - N/A   Partly Cloudy
10:00 PM 82.4 °F 90.9 °F 77.0 °F 84% 29.95 in 6.2 mi ESE 8.1 mph - N/A   Partly Cloudy
11:00 PM 83 °F - 77 °F 76% 29.96 in 25 mi East 5.8 mph - -   Scattered Clouds
11:00 PM 82.4 °F 90.9 °F 77.0 °F 84% 29.95 in 6.2 mi East 5.8 mph - N/A   Partly Cloudy